Weather History for Barksdale AFB, LA

Change the Weather History Date:

Wednesday, January 9, 2013

  Actual Average Record
Temperature  
Mean Temperature 57 °F -  
Max Temperature 59 °F 54 °F 75 °F (2003)
Min Temperature 55 °F 36 °F 27 °F (2011)
Degree Days  
Heating Degree Days 8    
Growing Degree Days 7 (Base 50)    
Moisture  
Dew Point 58 °F    
Average Humidity 100    
Maximum Humidity 100    
Minimum Humidity 100    
Precipitation  
Precipitation 1.44 in - - ()
Sea Level Pressure  
Sea Level Pressure 30.10 in    
Wind  
Wind Speed 8 mph (ENE)    
Max Wind Speed 26 mph    
Max Gust Speed 38 mph    
Visibility 5 miles    
Events Fog , Rain    
Averages and records for this station are not official NWS values.
T = Trace of Precipitation, MM = Missing Value Source: NWS Daily Summary

Daily Weather History Graph

Daily Weather History Graph

Search for Another Location

Airport:

Trip Planner

Search our weather history database for the weather conditions in past years. The results will help you decide how hot, cold, wet, or windy it might be!

Date:

Astronomy

Jan. 09, 2013 Rise Set
Actual Time 7:17 AM CST 5:26 PM CST
Civil Twilight 6:50 AM CST 5:53 PM CST
Nautical Twilight 6:19 AM CST 6:24 PM CST
Astronomical Twilight 5:50 AM CST 6:53 PM CST
Moon 4:56 AM CST (1/9) 3:29 PM CST (1/9)
Length of Visible Light 11h 03m
Length of Day
10h 09m
Waning Crescent, 6% of the Moon is Illuminated
Jan 9
Waning Crescent
Jan 11
New
Jan 18
First Quarter
Jan 26
Full
Feb 3
Last Quarter

Hourly Weather History & Observations

Time (CST) Temp. Dew Point Humidity Pressure Visibility Wind Dir Wind Speed Gust Speed Precip Events Conditions
12:04 AM 55.4 °F 55.4 °F 100% 30.08 in 5.0 mi East 6.9 mph - N/A   Overcast
12:55 AM 56.1 °F 56.1 °F 100% 30.08 in 5.0 mi East 6.9 mph - 0.00 in   Overcast
1:04 AM 57.2 °F 57.2 °F 100% 30.07 in 3.0 mi East 5.8 mph - N/A   Overcast
1:25 AM 57.2 °F 57.2 °F 100% 30.07 in 2.5 mi ENE 3.5 mph - N/A   Overcast
1:35 AM 55.4 °F 55.4 °F 100% 30.07 in 1.8 mi NE 4.6 mph - N/A   Overcast
1:39 AM 55.4 °F 55.4 °F 100% 30.08 in 1.5 mi ENE 4.6 mph - N/A   Overcast
1:43 AM 55.4 °F 55.4 °F 100% 30.07 in 0.5 mi ENE 6.9 mph - N/A   Overcast
1:55 AM 56.3 °F 56.3 °F 100% 30.07 in 0.5 mi NE 4.6 mph - N/A Fog Fog
2:55 AM 57.0 °F 57.0 °F 100% 30.07 in 1.5 mi NE 6.9 mph - N/A   Overcast
2:59 AM 57.2 °F 57.2 °F 100% 30.07 in 2.5 mi NE 8.1 mph - N/A   Overcast
3:37 AM 57.2 °F 57.2 °F 100% 30.08 in 2.0 mi NE 8.1 mph - N/A   Overcast
3:48 AM 57.2 °F 57.2 °F 100% 30.08 in 2.5 mi ENE 6.9 mph - N/A   Overcast
3:55 AM 57.4 °F 57.4 °F 100% 30.09 in 3.0 mi ENE 5.8 mph - N/A   Overcast
4:33 AM 57.2 °F 57.2 °F 100% 30.09 in 5.0 mi NE 8.1 mph - N/A   Overcast
4:55 AM 57.6 °F 57.6 °F 100% 30.09 in 5.0 mi ENE 8.1 mph - N/A   Overcast
5:23 AM 57.2 °F 57.2 °F 100% 30.09 in 3.0 mi NE 9.2 mph - N/A   Overcast
5:45 AM 57.2 °F 57.2 °F 100% 30.11 in 2.5 mi NE 6.9 mph - N/A   Overcast
5:55 AM 57.2 °F 57.2 °F 100% 30.12 in 2.5 mi NE 5.8 mph - N/A   Overcast
6:08 AM 57.2 °F 57.2 °F 100% 30.12 in 2.0 mi NE 5.8 mph - N/A   Overcast
6:17 AM 57.2 °F 57.2 °F 100% 30.12 in 1.8 mi NE 5.8 mph - N/A   Overcast
6:29 AM 57.2 °F 57.2 °F 100% 30.11 in 1.8 mi NE 4.6 mph - N/A   Light Drizzle
6:38 AM 57.2 °F 57.2 °F 100% 30.12 in 2.5 mi NE 4.6 mph - N/A   Light Drizzle
6:55 AM 57.2 °F 57.2 °F 100% 30.13 in 2.0 mi NE 5.8 mph - N/A   Light Drizzle
7:29 AM 57.2 °F 57.2 °F 100% 30.14 in 2.0 mi ENE 5.8 mph - N/A   Light Drizzle
7:55 AM 57.7 °F 57.7 °F 100% 30.14 in 2.0 mi NE 6.9 mph - 0.02 in Rain Light Rain
8:04 AM 57.2 °F 57.2 °F 100% 30.15 in 3.0 mi ENE 6.9 mph - N/A Rain Light Rain
8:24 AM 57.2 °F 57.2 °F 100% 30.15 in 3.0 mi ENE 6.9 mph - N/A Rain Light Rain
8:55 AM 57.9 °F 57.9 °F 100% 30.16 in 5.0 mi ENE 8.1 mph - 0.08 in Rain Rain
8:59 AM 57.2 °F 57.2 °F 100% 30.16 in 6.0 mi ENE 8.1 mph - N/A Rain Light Rain
9:20 AM 57.2 °F 57.2 °F 100% 30.16 in 2.5 mi ENE 8.1 mph - N/A Rain Heavy Rain
9:29 AM 59.0 °F 59.0 °F 100% 30.17 in 4.0 mi ENE 9.2 mph - N/A Rain Light Rain
9:55 AM 58.3 °F 58.3 °F 100% 30.17 in 6.0 mi ENE 10.4 mph - 0.11 in   Light Drizzle
10:55 AM 58.5 °F 58.5 °F 100% 30.17 in 6.0 mi ENE 9.2 mph - 0.04 in Rain Light Rain
11:55 AM 58.5 °F 58.5 °F 100% 30.13 in 4.0 mi ENE 10.4 mph - 0.11 in Rain Light Rain
12:03 PM 59.0 °F 59.0 °F 100% 30.13 in 2.5 mi ENE 8.1 mph - N/A Rain Heavy Rain
12:10 PM 59.0 °F 59.0 °F 100% 30.12 in 2.5 mi ENE 8.1 mph - N/A Rain Rain
12:14 PM 59.0 °F 59.0 °F 100% 30.12 in 3.0 mi ENE 9.2 mph - N/A Rain Light Rain
12:55 PM 58.5 °F 58.5 °F 100% 30.09 in 8.0 mi ENE 10.4 mph - 0.14 in Rain Light Rain
1:27 PM 59.0 °F 59.0 °F 100% 30.09 in 5.0 mi ENE 9.2 mph 18.4 mph N/A Rain Rain
1:55 PM 58.6 °F 58.6 °F 100% 30.08 in 6.0 mi ENE 9.2 mph - 0.10 in Rain Light Rain
2:55 PM 58.8 °F 58.8 °F 100% 30.10 in 6.0 mi ENE 9.2 mph - 0.04 in   Light Drizzle
3:55 PM 58.8 °F 58.8 °F 100% 30.12 in 10.0 mi ENE 5.8 mph - 0.03 in Rain Light Rain
4:55 PM 58.5 °F 58.5 °F 100% 30.12 in 3.0 mi ENE 4.6 mph - 0.13 in Rain Rain
5:55 PM 58.3 °F 58.3 °F 100% 30.14 in 4.0 mi ENE 8.1 mph - 0.17 in Rain Rain
6:55 PM 58.3 °F 58.3 °F 100% 30.14 in 4.0 mi East 8.1 mph - 0.24 in Rain Rain
7:21 PM 59.0 °F 59.0 °F 100% 30.09 in 5.0 mi ENE 15.0 mph 23.0 mph N/A Rain Rain
7:31 PM 59.0 °F 59.0 °F 100% 30.05 in 4.0 mi East 25.3 mph 31.1 mph N/A Rain Heavy Rain
7:38 PM 57.2 °F 57.2 °F 100% 30.00 in 6.0 mi ENE 26.5 mph 38.0 mph N/A Rain Heavy Rain
7:55 PM 58.3 °F 58.3 °F 100% 30.01 in 10.0 mi East 25.3 mph 33.4 mph 0.23 in Rain Light Rain
8:01 PM 59.0 °F 59.0 °F 100% 30.03 in 10.0 mi East 24.2 mph 34.5 mph N/A   Light Drizzle
8:05 PM 59.0 °F 59.0 °F 100% 30.04 in 10.0 mi East 16.1 mph 34.5 mph N/A   Light Drizzle
8:09 PM 59.0 °F 59.0 °F 100% 30.04 in 10.0 mi East 17.3 mph 23.0 mph N/A   Mostly Cloudy
8:11 PM 59.0 °F 59.0 °F 100% 30.05 in 10.0 mi East 16.1 mph 23.0 mph N/A   Scattered Clouds
8:12 PM 59.0 °F 59.0 °F 100% 30.05 in 10.0 mi East 17.3 mph 23.0 mph N/A   Mostly Cloudy
8:36 PM 59.0 °F 59.0 °F 100% 30.07 in 10.0 mi ESE 10.4 mph - N/A   Overcast
8:55 PM 59.5 °F 59.5 °F 100% 30.11 in 6.0 mi East 4.6 mph - 0.00 in Rain Light Rain
9:55 PM 59.5 °F 59.5 °F 100% 30.08 in 6.0 mi East 9.2 mph 17.3 mph 0.00 in   Light Drizzle
10:30 PM 59.0 °F 59.0 °F 100% 30.05 in 10.0 mi East 12.7 mph - N/A   Overcast
10:55 PM 59.4 °F 59.4 °F 100% 30.06 in 10.0 mi East 8.1 mph - 0.00 in   Overcast
11:55 PM 59.7 °F 59.7 °F 100% 30.06 in 10.0 mi East 5.8 mph - N/A   Overcast